Theta_e
318 320 323 323 322 322 325 325 324 328 331 333 347 351 353 353 357 369 363 361 357 354 348 336 333 336 339 341 342 342 339 328 330 330 330 331 332 332 333 329 329 333 333 333 330 335 339 340 343
320 322 323 323 321 322 325 324 327 326 328 332 343 351 351 358 357 364 363 361 357 354 348 341 332 337 339 340 341 341 336 330 330 331 331 331 332 332 334 331 329 332 332 331 331 338 340 341 344
322 321 324 322 321 322 325 324 325 324 328 335 353 352 353 353 354 361 363 362 357 354 348 346 330 336 339 340 340 340 338 333 333 335 332 332 332 333 335 333 329 332 332 330 333 339 340 341 344
321 322 323 324 321 323 324 324 324 324 331 334 350 350 348 350 362 364 362 361 357 354 351 342 324 329 337 339 340 340 339 338 339 337 333 332 332 332 335 333 328 332 333 328 335 339 341 341 346
320 323 323 323 323 322 322 324 324 327 331 341 347 351 348 344 363 362 361 359 354 353 353 346 326 324 331 338 338 339 339 339 340 337 334 332 332 332 335 329 329 332 333 327 337 340 341 344 347
322 322 322 323 322 322 323 324 325 328 331 336 343 343 337 338 361 361 359 359 354 354 354 353 336 327 325 329 334 337 337 338 337 336 333 331 331 335 334 327 329 331 333 327 338 340 343 346 346
321 321 321 322 322 322 323 324 325 329 331 327 329 337 331 335 355 361 360 358 355 355 355 355 351 343 329 325 326 328 333 335 335 334 331 331 333 337 334 326 328 331 332 328 338 340 344 346 347
320 321 320 321 322 323 322 324 324 326 325 324 325 332 330 333 342 352 355 356 356 356 355 354 354 352 349 345 327 326 329 330 330 330 330 330 336 338 333 327 328 330 331 328 337 340 342 345 346
318 319 320 320 321 323 322 323 323 321 325 324 324 325 322 333 336 337 342 352 354 355 355 355 355 353 352 350 348 330 327 329 328 330 330 335 340 342 339 336 332 328 331 327 335 339 341 344 346
318 319 319 320 321 322 322 322 322 323 323 324 323 322 321 322 328 330 331 335 341 353 357 357 357 356 354 352 352 348 345 340 340 339 343 339 338 342 340 340 330 328 331 329 331 337 340 344 348
319 319 318 318 320 321 321 321 321 321 323 323 324 323 322 321 322 323 326 328 330 338 355 357 360 359 356 354 353 352 349 346 344 342 343 341 341 343 340 341 337 337 333 337 332 338 342 346 349
320 319 320 320 321 321 321 322 322 321 322 321 321 321 321 322 322 322 322 322 326 329 338 351 358 360 358 356 354 354 352 350 348 346 346 343 343 341 340 339 338 337 337 337 338 336 340 346 349
321 321 321 321 321 321 321 321 322 322 321 321 321 321 321 322 322 322 321 321 321 326 330 340 351 357 358 359 355 354 354 351 350 348 346 343 343 340 341 341 340 337 336 337 338 335 338 343 348
322 322 322 321 322 322 322 321 321 322 322 322 322 322 323 323 323 323 324 322 321 322 327 334 346 353 354 357 356 355 355 353 351 349 348 348 342 342 340 342 342 339 337 336 336 337 336 340 345
322 322 322 321 321 321 321 322 322 323 322 323 323 323 323 324 324 324 323 325 323 323 327 333 341 350 352 354 354 354 354 353 351 349 349 348 346 342 342 340 340 341 340 338 337 338 339 335 341
322 321 322 321 321 321 320 321 322 321 322 322 322 322 322 323 324 324 324 324 325 326 327 334 333 341 351 354 355 354 353 352 351 348 348 349 347 342 346 343 342 341 342 341 339 339 339 337 336
322 322 321 322 320 320 320 321 321 320 320 321 321 321 321 321 322 323 324 324 325 326 327 335 339 342 352 354 352 353 353 352 351 350 349 349 345 345 345 341 343 344 343 342 341 341 341 340 339
322 321 321 321 321 320 320 320 320 320 321 321 322 321 322 323 324 322 323 326 325 326 327 333 340 345 351 349 351 348 345 348 350 349 349 349 349 348 346 342 340 344 344 343 343 342 342 342 340
322 321 321 321 320 321 321 321 321 322 321 322 322 323 324 325 324 323 324 326 325 326 329 336 341 347 349 346 343 338 336 337 337 337 342 345 346 347 347 345 343 345 343 344 344 344 344 344 343
321 322 321 321 321 321 322 322 322 322 322 323 324 325 326 326 326 325 324 326 327 327 328 335 341 346 348 343 342 337 333 333 332 334 339 343 343 345 345 345 346 343 341 344 345 344 343 342 345
322 322 322 322 322 322 323 324 323 321 322 322 324 325 326 326 326 326 326 326 327 328 328 332 341 344 347 343 346 348 345 345 340 335 337 340 345 345 346 345 344 345 346 343 342 344 344 341 344
322 321 322 322 323 324 323 323 322 323 322 322 322 326 325 326 326 326 327 327 326 326 328 328 335 342 345 347 342 343 337 332 328 329 330 339 343 343 343 345 344 345 341 342 346 343 340 341 343
321 321 322 322 324 324 323 324 324 322 320 322 325 325 325 326 326 326 327 328 327 328 327 327 328 332 338 345 344 345 344 335 336 336 336 337 339 340 340 341 343 345 344 341 343 344 338 336 338
321 321 322 323 323 325 324 325 323 322 322 321 324 323 324 324 326 326 325 326 326 326 329 330 331 332 333 333 336 337 336 336 332 333 333 331 331 333 337 340 341 343 344 342 342 344 345 339 338
322 323 325 326 327 327 324 322 323 321 321 322 323 323 324 324 324 325 325 325 325 325 326 328 330 331 332 333 334 334 334 334 333 332 328 332 327 328 330 338 340 340 342 343 341 342 342 344 343
323 324 326 327 327 324 323 323 323 322 321 321 321 322 324 324 324 324 325 324 324 324 325 325 329 330 330 330 330 331 332 328 327 329 327 325 325 326 329 334 337 338 340 341 342 341 341 342 343
323 325 323 325 324 326 323 322 322 322 320 320 321 323 325 324 324 324 324 323 323 322 322 324 325 327 328 328 329 329 328 326 324 326 327 322 325 323 325 330 334 337 338 339 340 340 340 341 343
322 322 325 325 327 327 324 323 322 321 321 321 321 322 324 325 323 322 322 322 321 321 322 322 323 325 326 327 327 326 326 325 325 326 325 324 324 324 325 327 331 334 336 337 338 338 339 341 341
323 324 323 323 325 327 327 324 322 321 320 321 321 322 323 325 323 322 322 321 321 320 320 320 322 324 325 326 325 324 324 324 325 325 324 323 323 322 322 322 324 328 332 335 336 337 338 338 341
322 324 324 334 329 324 324 325 322 321 321 322 322 322 322 323 322 321 321 320 319 320 320 320 322 323 323 324 324 323 323 323 324 324 322 321 321 321 320 319 320 322 326 331 334 335 338 336 337
Wind_Speed
2 4 5 6 6 6 5 6 2 4 4 3 1 2 8 9 9 5 4 12 13 20 19 21 22 21 19 19 24 27 26 26 26 24 23 21 19 17 16 16 15 13 12 11 10 9 9 8 8
4 4 6 3 7 10 8 1 4 3 4 4 4 3 4 13 9 11 9 10 17 19 19 19 23 22 20 20 24 25 25 25 25 23 22 20 18 16 15 15 14 12 11 10 10 8 7 7 8
5 6 6 4 6 9 7 1 4 4 3 4 5 5 3 5 10 6 8 13 18 18 17 17 24 22 20 20 24 24 24 24 24 22 21 19 17 15 14 14 13 12 11 9 9 8 6 6 8
7 7 5 8 7 4 2 4 6 2 4 4 3 8 8 8 3 6 9 14 17 17 16 18 21 22 21 20 21 23 24 23 23 21 19 17 16 15 14 12 12 11 10 9 8 7 5 6 9
8 4 6 7 5 5 2 4 3 5 3 7 4 6 6 7 9 11 11 14 16 16 15 16 18 18 20 21 20 20 21 22 21 19 18 17 15 14 13 12 12 11 9 9 7 6 7 7 10
7 4 8 11 7 5 4 4 2 4 5 6 7 8 8 8 9 10 11 12 14 15 14 14 16 14 16 18 19 20 19 19 19 18 17 17 15 13 13 12 11 11 9 9 7 5 7 8 10
11 8 8 7 10 9 5 1 4 4 7 7 2 7 7 10 8 9 10 11 12 13 13 14 14 14 14 14 15 17 18 18 18 18 17 15 14 13 12 12 11 10 9 9 7 6 6 8 9
4 6 9 10 11 6 5 4 2 4 6 4 2 6 8 8 6 7 8 10 11 11 12 12 13 13 13 12 14 15 16 17 17 18 17 15 14 12 11 11 11 11 10 9 8 7 8 8 8
3 6 10 10 11 8 5 6 3 1 2 5 4 6 7 6 5 7 8 8 9 9 11 11 12 12 12 12 12 14 15 16 17 16 17 15 11 11 10 11 12 11 10 10 9 8 8 9 8
7 8 5 5 3 6 5 3 1 5 5 4 3 3 3 2 3 4 7 9 10 10 11 11 11 11 12 11 11 13 12 13 14 14 13 15 13 11 11 11 12 11 11 10 10 10 9 9 9
4 5 4 8 4 2 4 6 4 6 8 5 6 4 3 4 5 7 7 6 5 9 11 11 11 12 12 11 11 12 13 14 15 16 15 15 13 12 13 10 10 10 11 9 10 10 10 10 9
7 2 3 7 5 4 6 5 10 10 9 3 4 4 5 7 9 10 11 11 10 8 7 9 12 13 13 12 12 12 13 14 14 15 17 15 15 13 12 12 11 11 11 11 11 12 11 10 10
6 7 4 5 6 8 4 9 9 9 3 4 5 6 7 7 9 10 11 11 12 9 9 9 11 12 11 13 11 11 12 13 13 14 16 17 16 14 13 12 11 11 11 11 12 11 12 12 11
3 5 5 5 5 7 10 6 4 8 4 5 5 7 8 8 9 10 13 15 13 14 12 10 11 11 11 12 12 10 11 11 12 13 14 17 16 15 13 13 12 11 12 11 12 12 12 13 12
4 10 8 8 6 6 5 10 10 6 6 9 11 11 11 10 11 11 11 15 15 15 12 13 12 12 12 12 12 11 11 10 10 11 12 16 16 15 14 13 13 13 12 12 11 11 12 12 13
10 9 12 10 7 7 6 10 12 7 9 14 15 14 15 16 15 14 11 13 15 15 15 12 12 13 12 10 10 9 9 9 8 8 10 13 17 19 12 14 14 14 14 13 13 13 13 14 14
9 10 11 8 7 3 9 10 4 9 11 14 15 16 16 16 17 18 15 14 13 16 16 14 13 13 12 11 8 9 8 8 8 9 9 12 13 14 16 14 12 12 15 15 14 14 14 14 14
5 10 8 11 8 9 13 16 12 11 13 14 15 16 14 13 13 15 18 13 13 13 15 15 14 13 13 11 11 9 8 8 8 7 7 10 12 13 15 14 14 12 17 18 16 14 14 14 14
9 10 12 8 7 9 13 15 15 13 14 12 11 11 10 11 9 11 13 13 11 14 15 18 17 16 15 14 13 11 10 8 8 8 8 9 10 11 12 14 16 17 20 17 15 15 15 15 13
11 13 13 10 10 8 15 18 16 17 16 10 9 8 10 9 9 8 11 14 15 16 18 17 18 17 17 15 13 10 9 9 9 9 10 11 12 12 12 13 13 17 19 14 16 17 16 16 14
12 13 12 13 11 12 17 20 20 7 11 11 10 9 8 9 9 8 9 15 16 16 18 20 19 18 17 16 13 11 9 8 9 10 10 11 12 13 14 14 14 13 13 16 17 16 16 14 14
13 10 12 14 13 12 2 11 9 13 12 14 16 11 9 7 7 5 6 8 12 15 14 16 17 18 16 15 16 15 14 13 11 9 7 7 9 12 14 15 16 16 14 15 17 18 22 22 19
14 6 12 14 15 16 15 11 13 4 10 11 13 10 7 5 5 6 6 7 7 9 11 14 14 13 14 15 14 15 15 15 12 10 9 10 10 12 13 15 16 17 16 16 16 18 23 24 25
9 12 13 12 13 15 19 16 10 10 9 11 11 9 8 8 8 7 9 10 9 10 10 11 12 11 12 12 12 11 9 10 9 6 6 8 8 9 10 11 15 17 18 19 17 17 21 24 26
12 15 10 12 10 11 4 7 15 2 6 8 10 12 10 9 10 10 11 11 10 9 10 11 12 12 12 13 12 12 11 10 9 7 6 6 10 11 10 10 11 15 18 20 19 18 19 22 27
13 15 12 14 12 10 8 7 5 6 11 11 9 9 11 9 8 8 7 8 9 7 7 7 9 10 11 13 13 13 13 11 9 6 4 7 9 12 12 13 14 15 16 19 20 21 22 22 24
15 11 16 20 20 16 17 22 11 13 12 11 13 13 13 10 7 8 7 7 5 2 5 9 11 12 12 13 13 13 12 11 9 6 5 8 7 10 13 15 17 17 18 18 21 23 22 22 22
14 15 11 11 16 22 16 18 10 4 13 14 14 15 15 14 10 7 5 5 6 8 10 14 16 17 16 17 17 15 13 10 7 7 8 8 8 8 10 14 17 18 19 20 21 23 23 23 23
12 16 16 15 16 17 19 14 7 3 8 12 13 16 10 11 14 8 6 9 11 13 14 15 16 19 20 21 20 18 15 12 11 11 10 9 8 9 11 13 17 18 19 20 23 23 25 25 24
17 21 17 13 17 18 18 20 12 11 10 7 8 6 10 6 8 11 12 15 17 20 21 19 17 20 22 22 21 19 15 14 14 14 12 11 10 11 11 13 16 19 21 21 23 24 26 27 27
Wind_Direction
270 234 222 231 234 235 187 151 320 246 212 52 279 271 26 40 25 36 50 162 148 153 159 164 171 168 168 175 175 174 171 168 165 162 159 155 152 148 146 141 140 137 131 127 122 118 112 107 105
214 207 219 258 253 211 151 133 216 326 307 307 215 212 193 81 49 106 122 149 153 154 157 163 172 169 167 169 174 175 173 171 170 166 163 160 155 152 150 144 144 142 135 131 126 121 112 110 117
199 217 248 236 246 244 129 82 356 321 282 224 148 322 43 38 52 52 90 136 150 153 155 165 169 171 171 169 173 176 177 175 174 171 168 164 159 155 154 150 149 147 139 135 130 123 117 117 130
199 195 217 241 198 70 42 10 354 217 149 189 249 105 97 36 29 64 109 139 147 152 155 170 169 173 175 175 173 179 180 181 180 176 174 170 165 163 159 158 152 149 146 141 135 126 117 121 136
212 246 220 217 157 132 125 24 354 163 159 157 221 120 84 52 80 109 114 141 148 149 152 159 167 171 179 183 182 182 185 187 186 183 181 176 172 170 164 163 158 154 152 143 140 128 123 134 141
208 272 222 188 160 146 111 52 347 123 165 125 130 118 88 87 93 101 106 129 143 146 149 161 170 171 178 186 190 192 194 194 195 192 188 183 179 174 170 170 165 158 155 146 142 133 131 146 150
258 222 234 169 161 157 104 100 65 94 137 74 149 140 113 80 91 105 112 128 142 150 155 160 167 176 181 187 194 198 199 200 201 197 193 189 185 180 175 174 171 164 158 152 147 139 133 147 154
264 262 201 189 186 145 129 156 124 16 85 145 245 158 116 72 96 124 132 137 151 161 163 167 172 177 179 188 196 199 202 203 201 200 197 194 193 189 183 179 180 172 165 161 158 154 144 151 159
253 232 203 191 192 145 153 194 116 110 112 74 90 88 93 102 131 151 161 164 166 172 176 181 181 183 187 187 197 198 204 206 206 205 203 199 195 200 202 191 198 180 175 173 170 168 165 164 170
243 244 189 144 160 183 159 252 114 225 176 160 156 139 134 141 167 218 193 189 188 192 196 194 194 189 190 192 194 193 200 204 206 208 208 202 207 202 199 196 197 189 185 184 183 185 180 170 179
171 247 145 165 164 255 242 240 222 248 225 214 228 207 226 260 240 249 246 242 241 197 202 206 198 198 200 201 200 202 204 204 208 206 207 208 209 208 202 201 196 194 196 197 196 200 196 206 192
196 157 186 154 173 232 237 294 256 244 265 22 250 250 246 245 257 254 256 256 237 220 212 212 205 204 207 207 207 210 210 208 209 209 206 206 208 207 207 209 205 200 201 205 204 208 212 211 215
232 171 191 198 234 238 253 257 268 247 247 244 237 228 239 242 253 254 257 259 260 249 222 208 204 208 207 207 212 216 215 214 214 212 211 207 207 209 209 210 210 208 207 207 209 216 212 214 216
140 212 214 202 185 199 230 234 228 207 208 225 242 241 228 242 254 262 248 242 239 230 225 215 213 212 209 210 215 220 217 213 215 216 217 213 208 202 213 213 217 217 215 213 215 214 214 217 219
200 232 194 197 176 173 250 231 224 180 223 246 247 245 243 239 248 250 248 235 231 229 228 220 219 216 213 212 216 219 222 215 215 216 219 211 207 212 212 224 227 223 220 216 217 217 217 219 222
224 236 207 164 198 151 240 265 171 232 239 260 268 266 262 253 250 251 249 239 229 231 222 225 225 219 211 206 209 212 213 215 216 217 216 215 215 209 209 225 233 235 228 222 219 219 220 222 224
199 238 222 166 213 198 222 272 224 241 265 272 266 262 259 259 253 246 244 240 231 229 218 217 216 214 196 191 198 199 205 214 215 218 206 207 215 214 221 224 236 243 240 232 225 222 227 228 230
227 233 213 249 170 239 258 258 255 259 269 275 262 255 253 256 253 248 235 234 230 223 215 214 209 202 193 186 188 193 203 211 212 213 215 211 210 219 220 230 235 230 248 239 229 229 226 236 225
280 268 265 262 262 268 266 272 271 271 274 265 240 231 234 246 259 249 233 229 226 213 207 206 201 196 189 190 194 195 199 202 206 209 212 221 220 218 221 232 223 226 234 241 231 230 226 227 227
247 255 256 259 258 269 275 274 273 273 263 246 250 233 235 236 236 241 236 228 221 214 209 206 205 198 197 197 204 209 206 210 218 220 225 228 231 228 225 229 234 240 237 232 232 226 236 224 221
240 259 270 275 289 266 267 274 256 229 224 224 243 244 243 249 266 257 241 228 219 213 205 202 202 202 204 205 200 205 211 227 230 232 240 245 246 242 239 237 235 236 232 232 220 217 216 230 232
269 257 258 272 272 273 87 285 269 241 239 243 237 219 221 225 224 231 210 204 203 206 200 196 198 204 206 206 211 216 222 228 225 238 255 255 255 250 248 247 244 238 234 229 224 215 208 212 224
274 312 273 272 270 276 259 253 274 192 227 205 201 201 194 186 180 164 163 155 152 169 185 192 194 197 203 206 212 214 226 232 242 250 258 265 262 257 255 251 248 243 238 238 233 224 217 220 228
273 269 254 255 259 258 250 239 256 227 219 196 185 185 169 155 147 136 130 133 130 132 135 148 161 171 184 192 203 209 220 228 230 228 254 265 268 269 269 262 253 248 246 242 240 236 233 229 228
246 254 258 243 216 252 100 254 245 246 212 199 190 184 176 169 149 147 150 137 132 137 143 150 155 153 164 166 174 182 186 195 204 211 243 272 277 277 279 277 267 257 250 247 244 240 241 236 232
231 249 248 274 267 268 144 243 248 279 238 221 224 214 182 193 156 159 145 142 146 142 159 173 179 181 183 185 187 185 186 200 211 212 233 263 279 283 286 280 275 267 260 253 247 244 244 244 235
246 237 267 275 271 271 263 267 229 219 240 232 216 214 196 181 177 183 171 189 171 211 230 229 220 214 211 211 205 202 200 202 208 200 228 253 264 280 284 282 277 270 264 255 251 247 244 244 242
253 277 230 230 262 261 258 251 255 190 214 223 226 210 209 185 192 187 203 207 259 270 269 254 242 231 223 214 211 207 206 208 215 220 229 246 262 273 279 280 281 275 266 260 252 249 245 243 243
224 236 231 264 263 273 273 268 35 4 254 241 220 215 214 201 213 214 247 267 278 287 284 272 248 239 229 221 214 209 211 214 214 222 235 247 254 269 276 277 278 277 273 265 258 253 249 243 242
283 273 256 248 256 249 258 264 284 282 220 230 214 210 204 227 261 271 281 286 286 286 283 273 249 239 234 227 222 213 214 218 220 229 241 248 255 262 268 277 278 277 273 269 264 257 254 250 245